Time,TemperatureF,DewpointF,PressureIn,WindDirection,WindDirectionDegrees,WindSpeedMPH,WindSpeedGustMPH,Humidity,HourlyPrecipIn,Conditions,Clouds,dailyrainin,SoftwareType,DateUTC
2013-04-02 00:03:00,55.0,-99.9,29.88,WSW,249,12.0,14.0,-999,-99.99,,,-99.99,,2013-04-02 04:03:00,
2013-04-02 00:13:00,55.0,-99.9,29.88,West,270,11.0,14.0,-999,-99.99,,,-99.99,,2013-04-02 04:13:00,
2013-04-02 00:23:00,56.0,-99.9,29.89,WNW,287,13.0,15.0,-999,-99.99,,,-99.99,,2013-04-02 04:23:00,
2013-04-02 00:33:00,56.0,-99.9,29.89,WNW,287,13.0,16.0,-999,-99.99,,,-99.99,,2013-04-02 04:33:00,
2013-04-02 00:43:00,56.0,-99.9,29.89,WNW,282,12.0,14.0,-999,-99.99,,,-99.99,,2013-04-02 04:43:00,
2013-04-02 00:53:00,55.0,-99.9,29.89,WNW,283,10.0,11.0,-999,-99.99,,,-99.99,,2013-04-02 04:53:00,
2013-04-02 01:02:00,53.0,-99.9,29.91,NNE,25,21.0,28.0,-999,-99.99,,,-99.99,,2013-04-02 05:02:00,
2013-04-02 01:12:00,53.0,-99.9,29.91,NNE,26,23.0,27.0,-999,-99.99,,,-99.99,,2013-04-02 05:12:00,
2013-04-02 01:23:00,54.0,-99.9,29.92,NNE,32,23.0,27.0,-999,-99.99,,,-99.99,,2013-04-02 05:23:00,
2013-04-02 01:33:00,54.0,-99.9,29.92,NNE,28,28.0,32.0,-999,-99.99,,,-99.99,,2013-04-02 05:33:00,
2013-04-02 01:43:00,53.0,-99.9,29.93,NNE,27,27.0,31.0,-999,-99.99,,,-99.99,,2013-04-02 05:43:00,
2013-04-02 01:52:00,53.0,-99.9,29.93,NNE,30,22.0,29.0,-999,-99.99,,,-99.99,,2013-04-02 05:52:00,
2013-04-02 02:03:00,53.0,-99.9,29.94,NNE,27,24.0,29.0,-999,-99.99,,,-99.99,,2013-04-02 06:03:00,
2013-04-02 02:12:00,53.0,-99.9,29.94,NNE,26,24.0,29.0,-999,-99.99,,,-99.99,,2013-04-02 06:12:00,
2013-04-02 02:22:00,53.0,-99.9,29.94,NNE,29,25.0,30.0,-999,-99.99,,,-99.99,,2013-04-02 06:22:00,
2013-04-02 02:32:00,52.0,-99.9,29.95,NNE,27,27.0,31.0,-999,-99.99,,,-99.99,,2013-04-02 06:32:00,
2013-04-02 02:42:00,52.0,-99.9,29.95,NNE,28,27.0,32.0,-999,-99.99,,,-99.99,,2013-04-02 06:42:00,
2013-04-02 02:52:00,52.0,-99.9,29.95,NNE,26,27.0,31.0,-999,-99.99,,,-99.99,,2013-04-02 06:52:00,
2013-04-02 03:02:00,52.0,-99.9,29.95,NNE,24,27.0,33.0,-999,-99.99,,,-99.99,,2013-04-02 07:02:00,
2013-04-02 03:13:00,52.0,-99.9,29.96,NNE,26,29.0,34.0,-999,-99.99,,,-99.99,,2013-04-02 07:13:00,
2013-04-02 03:22:00,52.0,-99.9,29.96,NNE,24,28.0,34.0,-999,-99.99,,,-99.99,,2013-04-02 07:22:00,
2013-04-02 03:32:00,51.0,-99.9,29.96,NNE,25,30.0,34.0,-999,-99.99,,,-99.99,,2013-04-02 07:32:00,
2013-04-02 03:43:00,51.0,-99.9,29.96,NNE,27,29.0,34.0,-999,-99.99,,,-99.99,,2013-04-02 07:43:00,
2013-04-02 03:53:00,51.0,-99.9,29.96,NNE,29,29.0,35.0,-999,-99.99,,,-99.99,,2013-04-02 07:53:00,
2013-04-02 04:02:00,51.0,-99.9,29.97,NNE,26,27.0,34.0,-999,-99.99,,,-99.99,,2013-04-02 08:02:00,
2013-04-02 04:14:00,51.0,-99.9,29.97,NNE,30,30.0,34.0,-999,-99.99,,,-99.99,,2013-04-02 08:14:00,
2013-04-02 04:23:00,50.0,-99.9,29.98,NNE,29,28.0,34.0,-999,-99.99,,,-99.99,,2013-04-02 08:23:00,
2013-04-02 04:33:00,50.0,-99.9,29.98,NNE,27,29.0,32.0,-999,-99.99,,,-99.99,,2013-04-02 08:33:00,
2013-04-02 04:43:00,50.0,-99.9,29.98,NNE,30,27.0,32.0,-999,-99.99,,,-99.99,,2013-04-02 08:43:00,
2013-04-02 04:52:00,50.0,-99.9,29.98,NNE,26,28.0,34.0,-999,-99.99,,,-99.99,,2013-04-02 08:52:00,
2013-04-02 05:02:00,50.0,-99.9,29.99,NE,34,23.0,32.0,-999,-99.99,,,-99.99,,2013-04-02 09:02:00,
2013-04-02 05:13:00,50.0,-99.9,29.99,NNE,29,26.0,32.0,-999,-99.99,,,-99.99,,2013-04-02 09:13:00,
2013-04-02 05:22:00,50.0,-99.9,29.98,NNE,32,26.0,32.0,-999,-99.99,,,-99.99,,2013-04-02 09:22:00,
2013-04-02 05:33:00,50.0,-99.9,29.99,NE,36,20.0,29.0,-999,-99.99,,,-99.99,,2013-04-02 09:33:00,
2013-04-02 05:43:00,50.0,-99.9,29.98,NE,35,23.0,30.0,-999,-99.99,,,-99.99,,2013-04-02 09:43:00,
2013-04-02 05:53:00,49.0,-99.9,30.00,NE,37,20.0,26.0,-999,-99.99,,,-99.99,,2013-04-02 09:53:00,
2013-04-02 06:03:00,49.0,-99.9,30.00,NNE,31,24.0,28.0,-999,-99.99,,,-99.99,,2013-04-02 10:03:00,
2013-04-02 06:13:00,49.0,-99.9,30.01,NE,35,20.0,26.0,-999,-99.99,,,-99.99,,2013-04-02 10:13:00,
2013-04-02 06:24:00,49.0,-99.9,30.01,NE,41,16.0,26.0,-999,-99.99,,,-99.99,,2013-04-02 10:24:00,
2013-04-02 06:33:00,49.0,-99.9,30.02,NE,38,17.0,23.0,-999,-99.99,,,-99.99,,2013-04-02 10:33:00,
2013-04-02 06:43:00,49.0,-99.9,30.02,NE,38,17.0,23.0,-999,-99.99,,,-99.99,,2013-04-02 10:43:00,
2013-04-02 06:53:00,49.0,-99.9,30.03,NNE,31,19.0,26.0,-999,-99.99,,,-99.99,,2013-04-02 10:53:00,
2013-04-02 07:03:00,49.0,-99.9,30.03,NE,42,15.0,23.0,-999,-99.99,,,-99.99,,2013-04-02 11:03:00,
2013-04-02 07:12:00,49.0,-99.9,30.03,NE,40,16.0,21.0,-999,-99.99,,,-99.99,,2013-04-02 11:12:00,
2013-04-02 07:23:00,49.0,-99.9,30.04,NNE,31,20.0,23.0,-999,-99.99,,,-99.99,,2013-04-02 11:23:00,
2013-04-02 07:33:00,49.0,-99.9,30.04,NNE,30,17.0,23.0,-999,-99.99,,,-99.99,,2013-04-02 11:33:00,
2013-04-02 07:43:00,49.0,-99.9,30.05,NE,36,17.0,23.0,-999,-99.99,,,-99.99,,2013-04-02 11:43:00,
2013-04-02 07:53:00,49.0,-99.9,30.06,NNE,30,19.0,23.0,-999,-99.99,,,-99.99,,2013-04-02 11:53:00,
2013-04-02 08:02:00,49.0,-99.9,30.06,NE,37,15.0,20.0,-999,-99.99,,,-99.99,,2013-04-02 12:02:00,
2013-04-02 08:12:00,49.0,-99.9,30.07,NNE,30,16.0,23.0,-999,-99.99,,,-99.99,,2013-04-02 12:12:00,
2013-04-02 08:23:00,49.0,-99.9,30.07,NE,35,14.0,20.0,-999,-99.99,,,-99.99,,2013-04-02 12:23:00,
2013-04-02 08:32:00,49.0,-99.9,30.08,NNE,32,18.0,23.0,-999,-99.99,,,-99.99,,2013-04-02 12:32:00,
2013-04-02 08:43:00,49.0,-99.9,30.08,NNE,29,19.0,24.0,-999,-99.99,,,-99.99,,2013-04-02 12:43:00,
2013-04-02 08:53:00,49.0,-99.9,30.09,NE,40,17.0,23.0,-999,-99.99,,,-99.99,,2013-04-02 12:53:00,
2013-04-02 09:02:00,49.0,-99.9,30.09,NE,35,15.0,20.0,-999,-99.99,,,-99.99,,2013-04-02 13:02:00,
2013-04-02 09:12:00,49.0,-99.9,30.09,NNE,33,15.0,24.0,-999,-99.99,,,-99.99,,2013-04-02 13:12:00,
2013-04-02 09:23:00,49.0,-99.9,30.10,NE,43,13.0,20.0,-999,-99.99,,,-99.99,,2013-04-02 13:23:00,
2013-04-02 09:33:00,49.0,-99.9,30.10,NE,41,14.0,19.0,-999,-99.99,,,-99.99,,2013-04-02 13:33:00,
2013-04-02 09:42:00,49.0,-99.9,30.11,NNE,33,15.0,20.0,-999,-99.99,,,-99.99,,2013-04-02 13:42:00,
2013-04-02 09:52:00,49.0,-99.9,30.11,NE,40,14.0,20.0,-999,-99.99,,,-99.99,,2013-04-02 13:52:00,
2013-04-02 10:02:00,49.0,-99.9,30.12,NNE,28,16.0,18.0,-999,-99.99,,,-99.99,,2013-04-02 14:02:00,
2013-04-02 10:13:00,48.0,-99.9,30.12,NNE,32,15.0,19.0,-999,-99.99,,,-99.99,,2013-04-02 14:13:00,
2013-04-02 10:23:00,49.0,-99.9,30.12,NNE,32,13.0,17.0,-999,-99.99,,,-99.99,,2013-04-02 14:23:00,
2013-04-02 10:33:00,49.0,-99.9,30.13,NE,45,11.0,17.0,-999,-99.99,,,-99.99,,2013-04-02 14:33:00,
2013-04-02 10:43:00,49.0,-99.9,30.13,NE,36,12.0,17.0,-999,-99.99,,,-99.99,,2013-04-02 14:43:00,
2013-04-02 10:52:00,49.0,-99.9,30.13,NE,41,13.0,17.0,-999,-99.99,,,-99.99,,2013-04-02 14:52:00,
2013-04-02 11:02:00,49.0,-99.9,30.12,NE,35,10.0,16.0,-999,-99.99,,,-99.99,,2013-04-02 15:02:00,
2013-04-02 11:12:00,48.0,-99.9,30.12,NNE,29,13.0,17.0,-999,-99.99,,,-99.99,,2013-04-02 15:12:00,
2013-04-02 11:23:00,49.0,-99.9,30.12,NNE,31,13.0,17.0,-999,-99.99,,,-99.99,,2013-04-02 15:23:00,
2013-04-02 11:33:00,48.0,-99.9,30.12,NE,34,12.0,18.0,-999,-99.99,,,-99.99,,2013-04-02 15:33:00,
2013-04-02 11:43:00,49.0,-99.9,30.13,NE,34,12.0,17.0,-999,-99.99,,,-99.99,,2013-04-02 15:43:00,
2013-04-02 11:58:00,48.0,-99.9,30.13,NNE,28,14.0,16.0,-999,-99.99,,,-99.99,,2013-04-02 15:58:00,
2013-04-02 12:04:00,49.0,-99.9,30.13,NE,35,11.0,17.0,-999,-99.99,,,-99.99,,2013-04-02 16:04:00,
2013-04-02 12:14:00,48.0,-99.9,30.12,NNE,29,13.0,18.0,-999,-99.99,,,-99.99,,2013-04-02 16:14:00,
2013-04-02 12:25:00,49.0,-99.9,30.12,NE,34,13.0,17.0,-999,-99.99,,,-99.99,,2013-04-02 16:25:00,
2013-04-02 12:39:00,49.0,-99.9,30.11,NE,49,11.0,15.0,-999,-99.99,,,-99.99,,2013-04-02 16:39:00,
2013-04-02 12:54:00,48.0,-99.9,30.11,NNE,27,11.0,15.0,-999,-99.99,,,-99.99,,2013-04-02 16:54:00,
2013-04-02 13:06:00,48.0,-99.9,30.11,NNE,27,13.0,15.0,-999,-99.99,,,-99.99,,2013-04-02 17:06:00,
2013-04-02 13:14:00,48.0,-99.9,30.11,NNE,27,11.0,14.0,-999,-99.99,,,-99.99,,2013-04-02 17:14:00,
2013-04-02 13:25:00,48.0,-99.9,30.11,NNE,28,9.0,13.0,-999,-99.99,,,-99.99,,2013-04-02 17:25:00,
2013-04-02 13:35:00,48.0,-99.9,30.11,NNE,24,10.0,14.0,-999,-99.99,,,-99.99,,2013-04-02 17:35:00,
2013-04-02 13:44:00,49.0,-99.9,30.11,ENE,59,8.0,13.0,-999,-99.99,,,-99.99,,2013-04-02 17:44:00,
2013-04-02 13:57:00,49.0,-99.9,30.10,NE,47,8.0,14.0,-999,-99.99,,,-99.99,,2013-04-02 17:57:00,
2013-04-02 14:05:00,49.0,-99.9,30.11,NE,44,7.0,11.0,-999,-99.99,,,-99.99,,2013-04-02 18:05:00,
2013-04-02 14:13:00,49.0,-99.9,30.10,ENE,57,8.0,11.0,-999,-99.99,,,-99.99,,2013-04-02 18:13:00,
2013-04-02 14:23:00,50.0,-99.9,30.10,North,7,5.0,8.0,-999,-99.99,,,-99.99,,2013-04-02 18:23:00,
2013-04-02 14:35:00,50.0,-99.9,30.10,ENE,65,5.0,11.0,-999,-99.99,,,-99.99,,2013-04-02 18:35:00,
2013-04-02 14:43:00,51.0,-99.9,30.10,NE,46,5.0,7.0,-999,-99.99,,,-99.99,,2013-04-02 18:43:00,
2013-04-02 14:57:00,51.0,-99.9,30.09,North,1,6.0,10.0,-999,-99.99,,,-99.99,,2013-04-02 18:57:00,
2013-04-02 15:03:00,50.0,-99.9,30.09,ESE,119,8.0,11.0,-999,-99.99,,,-99.99,,2013-04-02 19:03:00,
2013-04-02 15:13:00,49.0,-99.9,30.09,SE,124,8.0,11.0,-999,-99.99,,,-99.99,,2013-04-02 19:13:00,
2013-04-02 15:23:00,50.0,-99.9,30.09,SE,132,8.0,11.0,-999,-99.99,,,-99.99,,2013-04-02 19:23:00,
2013-04-02 15:35:00,49.0,-99.9,30.09,ESE,117,9.0,12.0,-999,-99.99,,,-99.99,,2013-04-02 19:35:00,
2013-04-02 15:47:00,49.0,-99.9,30.08,ESE,120,10.0,12.0,-999,-99.99,,,-99.99,,2013-04-02 19:47:00,
2013-04-02 15:57:00,49.0,-99.9,30.08,ESE,120,9.0,11.0,-999,-99.99,,,-99.99,,2013-04-02 19:57:00,
2013-04-02 16:04:00,49.0,-99.9,30.08,ESE,123,9.0,12.0,-999,-99.99,,,-99.99,,2013-04-02 20:04:00,
2013-04-02 16:14:00,49.0,-99.9,30.08,ESE,116,10.0,12.0,-999,-99.99,,,-99.99,,2013-04-02 20:14:00,
2013-04-02 16:23:00,49.0,-99.9,30.08,ESE,121,10.0,12.0,-999,-99.99,,,-99.99,,2013-04-02 20:23:00,
2013-04-02 16:34:00,49.0,-99.9,30.07,SE,127,7.0,11.0,-999,-99.99,,,-99.99,,2013-04-02 20:34:00,
2013-04-02 16:44:00,49.0,-99.9,30.07,ESE,119,9.0,11.0,-999,-99.99,,,-99.99,,2013-04-02 20:44:00,
2013-04-02 16:55:00,49.0,-99.9,30.07,ESE,118,9.0,12.0,-999,-99.99,,,-99.99,,2013-04-02 20:55:00,
2013-04-02 17:05:00,49.0,-99.9,30.07,ESE,115,9.0,12.0,-999,-99.99,,,-99.99,,2013-04-02 21:05:00,
2013-04-02 17:13:00,49.0,-99.9,30.07,ESE,114,10.0,13.0,-999,-99.99,,,-99.99,,2013-04-02 21:13:00,
2013-04-02 17:23:00,49.0,-99.9,30.07,ESE,113,9.0,11.0,-999,-99.99,,,-99.99,,2013-04-02 21:23:00,
2013-04-02 17:35:00,49.0,-99.9,30.06,ESE,113,9.0,12.0,-999,-99.99,,,-99.99,,2013-04-02 21:35:00,
2013-04-02 17:44:00,49.0,-99.9,30.06,ESE,118,9.0,12.0,-999,-99.99,,,-99.99,,2013-04-02 21:44:00,
2013-04-02 17:57:00,49.0,-99.9,30.06,ESE,114,9.0,11.0,-999,-99.99,,,-99.99,,2013-04-02 21:57:00,
2013-04-02 18:05:00,49.0,-99.9,30.07,ESE,114,7.0,12.0,-999,-99.99,,,-99.99,,2013-04-02 22:05:00,
2013-04-02 18:14:00,49.0,-99.9,30.07,ESE,114,8.0,12.0,-999,-99.99,,,-99.99,,2013-04-02 22:14:00,
2013-04-02 18:25:00,49.0,-99.9,30.07,ESE,113,10.0,14.0,-999,-99.99,,,-99.99,,2013-04-02 22:25:00,
2013-04-02 18:34:00,49.0,-99.9,30.08,ESE,114,9.0,12.0,-999,-99.99,,,-99.99,,2013-04-02 22:34:00,
2013-04-02 18:44:00,49.0,-99.9,30.08,ESE,118,10.0,11.0,-999,-99.99,,,-99.99,,2013-04-02 22:44:00,
2013-04-02 18:54:00,49.0,-99.9,30.09,ESE,115,9.0,11.0,-999,-99.99,,,-99.99,,2013-04-02 22:54:00,
2013-04-02 19:03:00,49.0,-99.9,30.09,ESE,119,8.0,11.0,-999,-99.99,,,-99.99,,2013-04-02 23:03:00,
2013-04-02 19:13:00,49.0,-99.9,30.09,ESE,117,8.0,11.0,-999,-99.99,,,-99.99,,2013-04-02 23:13:00,
2013-04-02 19:24:00,48.0,-99.9,30.09,ESE,120,8.0,10.0,-999,-99.99,,,-99.99,,2013-04-02 23:24:00,
2013-04-02 19:37:00,49.0,-99.9,30.09,ESE,119,5.0,9.0,-999,-99.99,,,-99.99,,2013-04-02 23:37:00,
2013-04-02 19:43:00,49.0,-99.9,30.09,ESE,120,6.0,9.0,-999,-99.99,,,-99.99,,2013-04-02 23:43:00,
2013-04-02 19:55:00,48.0,-99.9,30.09,ESE,116,6.0,9.0,-999,-99.99,,,-99.99,,2013-04-02 23:55:00,
2013-04-02 20:05:00,49.0,-99.9,30.09,ESE,120,7.0,10.0,-999,-99.99,,,-99.99,,2013-04-03 00:05:00,
2013-04-02 20:13:00,49.0,-99.9,30.10,ESE,118,8.0,9.0,-999,-99.99,,,-99.99,,2013-04-03 00:13:00,
2013-04-02 20:26:00,49.0,-99.9,30.10,ESE,120,6.0,10.0,-999,-99.99,,,-99.99,,2013-04-03 00:26:00,
2013-04-02 20:34:00,49.0,-99.9,30.10,ESE,114,7.0,11.0,-999,-99.99,,,-99.99,,2013-04-03 00:34:00,
2013-04-02 20:48:00,49.0,-99.9,30.10,ESE,118,6.0,9.0,-999,-99.99,,,-99.99,,2013-04-03 00:48:00,
2013-04-02 20:57:00,49.0,-99.9,30.10,ESE,107,6.0,9.0,-999,-99.99,,,-99.99,,2013-04-03 00:57:00,
2013-04-02 21:04:00,49.0,-99.9,30.11,ESE,108,6.0,8.0,-999,-99.99,,,-99.99,,2013-04-03 01:04:00,
2013-04-02 21:13:00,49.0,-99.9,30.11,ESE,117,6.0,8.0,-999,-99.99,,,-99.99,,2013-04-03 01:13:00,
2013-04-02 21:23:00,49.0,-99.9,30.11,ESE,117,6.0,8.0,-999,-99.99,,,-99.99,,2013-04-03 01:23:00,
2013-04-02 21:34:00,49.0,-99.9,30.12,ESE,118,5.0,7.0,-999,-99.99,,,-99.99,,2013-04-03 01:34:00,
2013-04-02 21:43:00,49.0,-99.9,30.12,SE,125,6.0,8.0,-999,-99.99,,,-99.99,,2013-04-03 01:43:00,
2013-04-02 21:54:00,49.0,-99.9,30.13,SE,129,5.0,8.0,-999,-99.99,,,-99.99,,2013-04-03 01:54:00,
2013-04-02 22:04:00,49.0,-99.9,30.14,SE,140,6.0,7.0,-999,-99.99,,,-99.99,,2013-04-03 02:04:00,
2013-04-02 22:25:00,49.0,-99.9,30.13,SE,141,6.0,8.0,-999,-99.99,,,-99.99,,2013-04-03 02:25:00,
2013-04-02 22:34:00,49.0,-99.9,30.14,SE,128,4.0,6.0,-999,-99.99,,,-99.99,,2013-04-03 02:34:00,
2013-04-02 22:45:00,49.0,-99.9,30.14,SE,125,6.0,7.0,-999,-99.99,,,-99.99,,2013-04-03 02:45:00,
2013-04-02 22:53:00,49.0,-99.9,30.14,ESE,117,4.0,6.0,-999,-99.99,,,-99.99,,2013-04-03 02:53:00,
2013-04-02 23:07:00,49.0,-99.9,30.14,East,79,5.0,6.0,-999,-99.99,,,-99.99,,2013-04-03 03:07:00,
2013-04-02 23:14:00,48.0,-99.9,30.14,East,85,4.0,7.0,-999,-99.99,,,-99.99,,2013-04-03 03:14:00,
2013-04-02 23:23:00,48.0,-99.9,30.14,East,80,4.0,6.0,-999,-99.99,,,-99.99,,2013-04-03 03:23:00,
2013-04-02 23:38:00,48.0,-99.9,30.14,East,88,3.0,4.0,-999,-99.99,,,-99.99,,2013-04-03 03:38:00,
2013-04-02 23:44:00,48.0,-99.9,30.15,East,87,4.0,4.0,-999,-99.99,,,-99.99,,2013-04-03 03:44:00,
2013-04-02 23:54:00,48.0,-99.9,30.14,East,93,4.0,5.0,-999,-99.99,,,-99.99,,2013-04-03 03:54:00,